Погода в Сахме

Оман     24°10′21″N   56°53′23″E
темп.,
°C
ветер,
м/с
пор.,
м/с
влажн.,
%
обл.,
%
осадки,
мм/ч
давл.,
гПа
погр.,
м
11 мая, вт
вт1101:00+30сз22540 0.0 100523
04:00+30зсз33520 0.0 100568
07:00+30з22490 0.0 100726
10:00+31ссв11410 0.0 100753
13:00+31ссв34430 0.0 1006117
16:00+31всв33564 0.0 1004108
19:00+30вюв335556 0.0 100427
22:00+30ю225613 0.0 100515
12 мая, ср
ср1201:00+30юз12525 0.0 100411
04:00+31юв11530 0.0 100411
07:00+31зсз22490 0.0 100613
10:00+32всв11480 0.0 100638
13:00+32св33420 0.0 100478
16:00+32св34490 0.0 100252
19:00+31ююв44500 0.0 100238
22:00+31ююв4456100 0.0 100341
13 мая, чт
чт1301:00+31юв1256100 0.0 100212
04:00+32зсз22473 0.0 100211
07:00+31с33590 0.0 100422
10:00+31ссв11637 0.0 100450
13:00+33св22470 0.0 100257
16:00+32всв67555 0.0 100088
19:00+31ююв445911 0.0 100029
22:00+31вюв01674 0.0 100211
14 мая, пт
пт1401:00+31ю11620 0.0 100011
04:00+31вюв12563 0.0 100011
07:00+31зсз44603 0.0 100341
10:00+32сз225551 0.0 100343
13:00+33ссв43490 0.0 100155
16:00+32св79610 0.0 998102
19:00+31ююв3364100 0.0 100030
22:00+31всв22605 0.0 100111
15 мая, сб
сб1501:00+31ссв11625 0.0 100011
04:00+31с335710 0.0 100029
07:00+31зюз44600 0.0 100255
10:00+32ссв22570 0.0 100249
13:00+32всв33500 0.0 100081
16:00+31в911620 0.0 998149
19:00+31сз44672 0.0 99943
22:00+31ююз11620 0.0 100111